Station Historical Data
Daily Summary for August 7, 2017 Units:  Metric    English   Both
« Previous Day
Next Day »
Daily Weekly Monthly Yearly Custom
  High: Low: Average:
Temperature: 24.8 °C 15 °C 18.9 °C
Dew Point: 18.1 °C 13.1 °C 15.3 °C
Humidity: 89% 56% 80%
Wind Speed: 14.5km/h 0km/h 1.4km/h
Wind Gust: 20.9km/h - -
Wind- - South
Pressure: 1017.2 hPa 1013.1 hPa -
Precipitation: 0 mm    
Historical Graphs
 
 
Tabular Data for August 7, 2017
Time Temperature Dew Point Pressure Wind Wind Speed Wind Gust Humidity Rainfall Rate (Hourly)
00:04 19.5 °C 15.9 °C 1017.2 hPa Calm     80% 0 mm
00:09 19.3 °C 15.7 °C 1017.2 hPa Calm   3.2 km/h 80% 0 mm
00:14 19 °C 15.7 °C 1017.2 hPa Calm   3.2 km/h 81% 0 mm
00:19 18.8 °C 15.4 °C 1016.8 hPa Calm   3.2 km/h 81% 0 mm
00:24 18.6 °C 15.5 °C 1016.8 hPa Calm     82% 0 mm
00:29 18.4 °C 15.3 °C 1016.8 hPa Calm     82% 0 mm
00:34 18.2 °C 15.3 °C 1017.2 hPa Calm     83% 0 mm
00:39 18.1 °C 15.1 °C 1016.8 hPa Calm     83% 0 mm
00:44 17.9 °C 15.2 °C 1017.2 hPa Calm     84% 0 mm
00:49 17.9 °C 15.2 °C 1016.8 hPa Calm     84% 0 mm
00:54 17.7 °C 15 °C 1016.8 hPa Calm     84% 0 mm
00:59 17.6 °C 14.8 °C 1016.8 hPa Calm     84% 0 mm
01:04 17.5 °C 14.9 °C 1016.8 hPa Calm     85% 0 mm
01:09 17.3 °C 14.8 °C 1016.8 hPa Calm     85% 0 mm
01:14 17.3 °C 14.9 °C 1016.8 hPa Calm     86% 0 mm
01:19 17.3 °C 14.7 °C 1016.8 hPa Calm     85% 0 mm
01:24 17.3 °C 14.9 °C 1016.8 hPa Calm     86% 0 mm
01:29 17.2 °C 14.8 °C 1016.8 hPa Calm     86% 0 mm
01:34 17.2 °C 14.8 °C 1016.8 hPa Calm     86% 0 mm
01:39 17.1 °C 14.5 °C 1016.8 hPa Calm     85% 0 mm
01:44 16.9 °C 14.6 °C 1016.8 hPa Calm     86% 0 mm
01:49 16.9 °C 14.6 °C 1016.8 hPa Calm     86% 0 mm
01:54 16.9 °C 14.6 °C 1016.8 hPa Calm     86% 0 mm
01:59 16.9 °C 14.6 °C 1016.5 hPa Calm     86% 0 mm
02:04 16.9 °C 14.3 °C 1016.5 hPa Calm     85% 0 mm
02:09 16.8 °C 14.2 °C 1016.5 hPa Calm     85% 0 mm
02:14 16.7 °C 14.1 °C 1016.8 hPa Calm     85% 0 mm
02:19 16.5 °C 14.2 °C 1016.5 hPa Calm     86% 0 mm
02:24 16.4 °C 14.1 °C 1016.5 hPa Calm     86% 0 mm
02:29 16.4 °C 14.1 °C 1016.5 hPa Calm     86% 0 mm
02:34 16.4 °C 14.1 °C 1016.5 hPa Calm     86% 0 mm
02:39 16.5 °C 14.2 °C 1016.5 hPa Calm     86% 0 mm
02:44 16.5 °C 14.2 °C 1016.5 hPa Calm     86% 0 mm
02:49 16.5 °C 14.2 °C 1016.5 hPa Calm     86% 0 mm
02:54 16.4 °C 14.1 °C 1016.5 hPa Calm     86% 0 mm
02:59 16.3 °C 13.9 °C 1016.5 hPa Calm     86% 0 mm
03:04 16.2 °C 13.8 °C 1016.5 hPa Calm     86% 0 mm
03:09 16.1 °C 13.8 °C 1016.5 hPa Calm     86% 0 mm
03:14 16 °C 13.7 °C 1016.1 hPa Calm     86% 0 mm
03:19 15.9 °C 13.6 °C 1016.1 hPa Calm     86% 0 mm
03:24 15.8 °C 13.7 °C 1016.1 hPa Calm     87% 0 mm
03:29 15.8 °C 13.6 °C 1016.1 hPa Calm     87% 0 mm
03:34 15.7 °C 13.6 °C 1016.1 hPa Calm     87% 0 mm
03:39 15.6 °C 13.4 °C 1016.1 hPa Calm     87% 0 mm
03:44 15.5 °C 13.3 °C 1016.1 hPa Calm     87% 0 mm
03:49 15.4 °C 13.4 °C 1016.1 hPa Calm     88% 0 mm
03:54 15.4 °C 13.4 °C 1016.1 hPa Calm     88% 0 mm
03:59 15.4 °C 13.4 °C 1016.1 hPa Calm     88% 0 mm
04:04 15.4 °C 13.4 °C 1016.1 hPa Calm     88% 0 mm
04:09 15.3 °C 13.3 °C 1015.8 hPa Calm     88% 0 mm
04:14 15.3 °C 13.3 °C 1016.1 hPa Calm     88% 0 mm
04:19 15.3 °C 13.6 °C 1015.8 hPa Calm     89% 0 mm
04:24 15.2 °C 13.2 °C 1015.8 hPa Calm     88% 0 mm
04:29 15.1 °C 13.1 °C 1015.8 hPa Calm     88% 0 mm
04:34 15.1 °C 13.3 °C 1015.8 hPa Calm     89% 0 mm
04:39 15.1 °C 13.3 °C 1015.8 hPa Calm     89% 0 mm
04:44 15.2 °C 13.4 °C 1015.8 hPa Calm     89% 0 mm
04:49 15.2 °C 13.4 °C 1016.1 hPa Calm     89% 0 mm
04:54 15.2 °C 13.4 °C 1016.1 hPa Calm     89% 0 mm
04:59 15.1 °C 13.1 °C 1016.1 hPa Calm     88% 0 mm
05:04 15.1 °C 13.3 °C 1015.8 hPa Calm     89% 0 mm
05:09 15 °C 13.2 °C 1015.8 hPa Calm     89% 0 mm
05:14 15 °C 13.2 °C 1015.8 hPa Calm     89% 0 mm
05:19 15.1 °C 13.3 °C 1015.8 hPa Calm     89% 0 mm
05:24 15.1 °C 13.3 °C 1015.8 hPa Calm     89% 0 mm
05:29 15.1 °C 13.3 °C 1015.8 hPa Calm     89% 0 mm
05:34 15.2 °C 13.4 °C 1015.8 hPa Calm     89% 0 mm
05:39 15.2 °C 13.4 °C 1015.8 hPa Calm     89% 0 mm
05:44 15.3 °C 13.6 °C 1015.8 hPa Calm     89% 0 mm
05:49 15.4 °C 13.6 °C 1015.8 hPa Calm     89% 0 mm
05:54 15.4 °C 13.4 °C 1015.8 hPa Calm     88% 0 mm
05:59 15.4 °C 13.4 °C 1015.8 hPa Calm     88% 0 mm
06:04 15.5 °C 13.5 °C 1015.8 hPa Calm     88% 0 mm
06:09 15.6 °C 13.6 °C 1015.8 hPa Calm     88% 0 mm
06:14 15.6 °C 13.4 °C 1015.8 hPa Calm     87% 0 mm
06:19 15.7 °C 13.5 °C 1015.8 hPa Calm     87% 0 mm
06:24 15.7 °C 13.5 °C 1015.8 hPa Calm     87% 0 mm
06:29 15.8 °C 13.6 °C 1015.8 hPa Calm     87% 0 mm
06:34 15.8 °C 13.7 °C 1015.8 hPa Calm     87% 0 mm
06:39 15.9 °C 13.6 °C 1015.8 hPa Calm     86% 0 mm
06:44 15.9 °C 13.6 °C 1015.8 hPa Calm     86% 0 mm
06:49 16 °C 13.7 °C 1015.8 hPa South 3.2 km/h 4.8 km/h 86% 0 mm
06:54 16.1 °C 13.7 °C 1015.8 hPa Calm   4.8 km/h 86% 0 mm
06:59 16.1 °C 13.8 °C 1015.8 hPa Calm     86% 0 mm
07:04 16.1 °C 13.6 °C 1015.8 hPa Calm     85% 0 mm
07:09 16.2 °C 13.7 °C 1015.8 hPa Calm     85% 0 mm
07:14 16.3 °C 13.8 °C 1016.1 hPa Calm     85% 0 mm
07:19 16.4 °C 13.8 °C 1016.1 hPa Calm     85% 0 mm
07:24 16.6 °C 14 °C 1016.1 hPa Calm     85% 0 mm
07:29 16.7 °C 13.9 °C 1015.8 hPa Calm     84% 0 mm
07:34 16.8 °C 14.1 °C 1015.8 hPa Calm     84% 0 mm
07:39 16.9 °C 14.2 °C 1016.1 hPa Calm     84% 0 mm
07:44 17 °C 14.1 °C 1016.1 hPa Calm     83% 0 mm
07:49 17.2 °C 14.5 °C 1016.1 hPa Calm     84% 0 mm
07:54 17.3 °C 14.6 °C 1016.1 hPa Calm     84% 0 mm
07:59 17.4 °C 14.7 °C 1016.1 hPa Calm     84% 0 mm
08:04 17.5 °C 14.9 °C 1016.1 hPa Calm     85% 0 mm
08:09 17.6 °C 14.8 °C 1016.1 hPa Calm     84% 0 mm
08:14 17.7 °C 15.1 °C 1016.1 hPa Calm     85% 0 mm
08:19 17.7 °C 15 °C 1015.8 hPa Calm     84% 0 mm
08:24 17.7 °C 15.2 °C 1015.8 hPa Calm     85% 0 mm
08:29 17.7 °C 15.1 °C 1015.8 hPa Calm     85% 0 mm
08:34 17.7 °C 15.1 °C 1015.8 hPa Calm     85% 0 mm
08:39 17.7 °C 15.2 °C 1015.8 hPa Calm     85% 0 mm
08:49 17.7 °C 14.9 °C 1015.8 hPa Calm     84% 0 mm
08:54 17.8 °C 15.2 °C 1015.8 hPa Calm     85% 0 mm
08:59 17.8 °C 15.2 °C 1015.8 hPa Calm     85% 0 mm
09:04 17.8 °C 15.2 °C 1015.8 hPa Calm   4.8 km/h 85% 0 mm
09:09 17.9 °C 15.3 °C 1015.8 hPa Calm   4.8 km/h 85% 0 mm
09:14 18 °C 15.4 °C 1015.8 hPa Calm   3.2 km/h 85% 0 mm
09:19 18.2 °C 15.6 °C 1015.8 hPa Calm     85% 0 mm
09:24 18.3 °C 15.6 °C 1015.5 hPa SE 1.6 km/h 3.2 km/h 84% 0 mm
09:29 18.6 °C 15.8 °C 1015.5 hPa SE 3.2 km/h 4.8 km/h 84% 0 mm
09:34 18.6 °C 15.7 °C 1015.5 hPa Calm   4.8 km/h 83% 0 mm
09:39 18.8 °C 15.8 °C 1015.5 hPa Calm     83% 0 mm
09:44 19.1 °C 15.9 °C 1015.5 hPa Calm     82% 0 mm
09:49 19.2 °C 15.8 °C 1015.5 hPa Calm     81% 0 mm
09:54 19.4 °C 16.1 °C 1015.5 hPa Calm     81% 0 mm
09:59 19.8 °C 16.1 °C 1015.5 hPa Calm     79% 0 mm
10:04 20.4 °C 16.5 °C 1015.5 hPa Calm     78% 0 mm
10:09 20.9 °C 16.8 °C 1015.5 hPa Calm     77% 0 mm
10:14 21.3 °C 16.9 °C 1015.5 hPa Calm     76% 0 mm
10:19 20.9 °C 16.6 °C 1015.1 hPa Calm   3.2 km/h 76% 0 mm
10:24 21.2 °C 16.8 °C 1015.1 hPa Calm   3.2 km/h 76% 0 mm
10:29 21.2 °C 16.4 °C 1015.1 hPa Calm   4.8 km/h 74% 0 mm
10:34 21.4 °C 16.8 °C 1015.5 hPa Calm   6.4 km/h 75% 0 mm
10:39 21.8 °C 17 °C 1015.5 hPa Calm   6.4 km/h 74% 0 mm
10:44 21.8 °C 16.7 °C 1015.5 hPa SW 1.6 km/h 8 km/h 73% 0 mm
10:49 22.2 °C 17.3 °C 1015.1 hPa SW 1.6 km/h 8 km/h 74% 0 mm
10:54 22.6 °C 17.5 °C 1015.1 hPa Calm   3.2 km/h 73% 0 mm
11:04 22.9 °C 17.2 °C 1015.1 hPa Calm   6.4 km/h 70% 0 mm
11:09 23.1 °C 17.5 °C 1015.1 hPa Calm   3.2 km/h 71% 0 mm
11:14 22.9 °C 17.2 °C 1015.1 hPa SE 1.6 km/h 3.2 km/h 70% 0 mm
11:19 23 °C 17 °C 1015.1 hPa SSE 1.6 km/h 6.4 km/h 69% 0 mm
11:24 22.8 °C 16.6 °C 1015.1 hPa SE 1.6 km/h 6.4 km/h 68% 0 mm
11:29 23.4 °C 17.4 °C 1015.1 hPa East 1.6 km/h 6.4 km/h 69% 0 mm
11:34 23.7 °C 16.2 °C 1015.1 hPa NE 3.2 km/h 6.4 km/h 63% 0 mm
11:39 23.8 °C 16.3 °C 1015.1 hPa NNE 1.6 km/h 6.4 km/h 63% 0 mm
11:44 24 °C 16.5 °C 1015.1 hPa NW 1.6 km/h 4.8 km/h 63% 0 mm
11:49 24 °C 16.3 °C 1014.8 hPa NNE 3.2 km/h 6.4 km/h 62% 0 mm
11:54 24.2 °C 17.7 °C 1014.8 hPa NNE 3.2 km/h 8 km/h 67% 0 mm
11:59 24.4 °C 17.7 °C 1014.8 hPa East 1.6 km/h 8 km/h 66% 0 mm
12:09 24.8 °C 15.9 °C 1014.8 hPa NW 3.2 km/h 9.7 km/h 58% 0 mm
12:14 24.8 °C 16.3 °C 1014.8 hPa WNW 1.6 km/h 6.4 km/h 59% 0 mm
12:19 24.7 °C 17.2 °C 1014.4 hPa West 4.8 km/h 4.8 km/h 63% 0 mm
12:24 24.8 °C 16.3 °C 1014.4 hPa West 1.6 km/h 4.8 km/h 59% 0 mm
12:29 24.4 °C 15.8 °C 1014.4 hPa NW 3.2 km/h 8 km/h 59% 0 mm
12:34 24.7 °C 17.4 °C 1014.4 hPa NNW 3.2 km/h 8 km/h 64% 0 mm
12:39 24.7 °C 15.3 °C 1014.4 hPa NNW 3.2 km/h 6.4 km/h 56% 0 mm
12:44 24.6 °C 16.1 °C 1014.4 hPa NW 3.2 km/h 8 km/h 59% 0 mm
12:49 24.4 °C 15.7 °C 1014.4 hPa Calm   6.4 km/h 58% 0 mm
12:54 24.4 °C 15.3 °C 1014.1 hPa WSW 4.8 km/h 6.4 km/h 57% 0 mm
12:59 24.2 °C 15.4 °C 1014.1 hPa West 4.8 km/h 4.8 km/h 58% 0 mm
13:04 24.3 °C 16 °C 1014.1 hPa Calm   6.4 km/h 60% 0 mm
13:09 24.4 °C 16.2 °C 1014.1 hPa WNW 3.2 km/h 8 km/h 60% 0 mm
13:14 24.4 °C 16.1 °C 1014.1 hPa Calm   4.8 km/h 60% 0 mm
13:19 24.1 °C 14.8 °C 1014.1 hPa Calm   4.8 km/h 56% 0 mm
13:24 24.2 °C 14.8 °C 1013.8 hPa WNW 1.6 km/h 4.8 km/h 56% 0 mm
13:29 24.2 °C 15.2 °C 1013.8 hPa WNW 1.6 km/h 4.8 km/h 57% 0 mm
13:34 24.3 °C 15.8 °C 1013.8 hPa West 3.2 km/h 9.7 km/h 59% 0 mm
13:39 24.3 °C 16.1 °C 1013.8 hPa WNW 3.2 km/h 9.7 km/h 60% 0 mm
13:44 24 °C 15.5 °C 1013.8 hPa WNW 3.2 km/h 8 km/h 59% 0 mm
13:49 24.1 °C 16.1 °C 1013.8 hPa Calm   6.4 km/h 61% 0 mm
13:54 24.3 °C 16 °C 1013.4 hPa West 3.2 km/h 8 km/h 60% 0 mm
13:59 24.3 °C 15.8 °C 1013.4 hPa WNW 3.2 km/h 8 km/h 59% 0 mm
14:04 24.2 °C 16.2 °C 1013.4 hPa WNW 3.2 km/h 8 km/h 61% 0 mm
14:09 24.1 °C 16.6 °C 1013.4 hPa NW 3.2 km/h 9.7 km/h 63% 0 mm
14:14 24.1 °C 16.1 °C 1013.1 hPa WNW 3.2 km/h 8 km/h 61% 0 mm
14:19 24.3 °C 16.6 °C 1013.1 hPa WSW 4.8 km/h 9.7 km/h 62% 0 mm
14:24 24.7 °C 16.9 °C 1013.1 hPa West 6.4 km/h 9.7 km/h 62% 0 mm
14:29 24.7 °C 16.9 °C 1013.1 hPa WNW 4.8 km/h 12.9 km/h 62% 0 mm
14:34 24.3 °C 16.6 °C 1013.1 hPa NNW 4.8 km/h 12.9 km/h 62% 0 mm
14:39 24.4 °C 16.6 °C 1013.1 hPa North 4.8 km/h 9.7 km/h 62% 0 mm
14:44 24.4 °C 16.1 °C 1013.1 hPa NNW 3.2 km/h 9.7 km/h 60% 0 mm
14:49 24.3 °C 16 °C 1013.1 hPa NW 3.2 km/h 8 km/h 60% 0 mm
14:54 23.9 °C 17.9 °C 1013.1 hPa North 3.2 km/h 12.9 km/h 69% 0 mm
14:59 23.2 °C 18.1 °C 1013.1 hPa NNW 6.4 km/h 14.5 km/h 73% 0 mm
15:04 22.6 °C 17.7 °C 1013.1 hPa North 6.4 km/h 16.1 km/h 74% 0 mm
15:09 22 °C 17.6 °C 1013.1 hPa NNW 8 km/h 19.3 km/h 76% 0 mm
15:14 21.4 °C 17.4 °C 1013.4 hPa North 8 km/h 19.3 km/h 78% 0 mm
15:19 21.2 °C 17.4 °C 1013.4 hPa ENE 4.8 km/h 19.3 km/h 79% 0 mm
15:24 20.9 °C 17.4 °C 1013.4 hPa NNE 3.2 km/h 16.1 km/h 80% 0 mm
15:29 20.8 °C 17.2 °C 1013.4 hPa NNE 1.6 km/h 16.1 km/h 80% 0 mm
15:34 20.6 °C 17.2 °C 1013.4 hPa North 6.4 km/h 17.7 km/h 81% 0 mm
15:39 20.4 °C 17.1 °C 1013.4 hPa North 6.4 km/h 17.7 km/h 81% 0 mm
15:44 20.4 °C 17.2 °C 1013.4 hPa North 4.8 km/h 19.3 km/h 82% 0 mm
15:49 20.4 °C 17.2 °C 1013.4 hPa NNW 8 km/h 14.5 km/h 82% 0 mm
15:54 20.4 °C 17.2 °C 1013.4 hPa North 1.6 km/h 14.5 km/h 82% 0 mm
15:59 20.6 °C 17.4 °C 1013.4 hPa North 11.3 km/h 12.9 km/h 82% 0 mm
16:04 20.4 °C 17.1 °C 1013.8 hPa North 6.4 km/h 17.7 km/h 81% 0 mm
16:09 20.4 °C 17.3 °C 1013.8 hPa North 8 km/h 17.7 km/h 82% 0 mm
16:14 20.4 °C 17.3 °C 1013.8 hPa North 6.4 km/h 14.5 km/h 82% 0 mm
16:19 20.4 °C 17.1 °C 1013.8 hPa NNW 6.4 km/h 14.5 km/h 81% 0 mm
16:24 20.4 °C 17.1 °C 1013.8 hPa NNW 4.8 km/h 14.5 km/h 81% 0 mm
16:29 20.7 °C 17.1 °C 1013.8 hPa North 3.2 km/h 8 km/h 80% 0 mm
16:34 20.6 °C 16.6 °C 1013.8 hPa NE 6.4 km/h 9.7 km/h 78% 0 mm
16:39 20.7 °C 16.9 °C 1013.8 hPa North 3.2 km/h 9.7 km/h 79% 0 mm
16:44 20.5 °C 16.6 °C 1013.8 hPa North 4.8 km/h 9.7 km/h 78% 0 mm
16:49 20.3 °C 16.4 °C 1014.1 hPa NE 4.8 km/h 9.7 km/h 78% 0 mm
16:54 20.2 °C 16.4 °C 1014.1 hPa NE 3.2 km/h 8 km/h 79% 0 mm
16:59 20.3 °C 16.6 °C 1013.8 hPa NNE 3.2 km/h 6.4 km/h 79% 0 mm
17:04 20.3 °C 16.6 °C 1013.8 hPa NNE 4.8 km/h 11.3 km/h 79% 0 mm
17:09 20.2 °C 16.4 °C 1013.8 hPa NE 4.8 km/h 17.7 km/h 79% 0 mm
17:14 20 °C 16.2 °C 1013.8 hPa NE 6.4 km/h 17.7 km/h 79% 0 mm
17:19 19.8 °C 16.1 °C 1013.8 hPa NE 8 km/h 19.3 km/h 79% 0 mm
17:24 19.8 °C 16.3 °C 1014.1 hPa ENE 8 km/h 19.3 km/h 80% 0 mm
17:29 19.7 °C 16.1 °C 1013.8 hPa ENE 6.4 km/h 17.7 km/h 80% 0 mm
17:34 19.4 °C 16.1 °C 1013.8 hPa NE 9.7 km/h 20.9 km/h 81% 0 mm
17:39 19.3 °C 16 °C 1013.8 hPa NE 9.7 km/h 20.9 km/h 81% 0 mm
17:44 19.2 °C 15.8 °C 1013.8 hPa NE 3.2 km/h 16.1 km/h 81% 0 mm
17:49 19.1 °C 15.9 °C 1013.8 hPa NE 14.5 km/h 14.5 km/h 82% 0 mm
17:54 19.1 °C 15.9 °C 1013.8 hPa NE 6.4 km/h 12.9 km/h 82% 0 mm
17:59 19.1 °C 15.9 °C 1013.4 hPa Calm   6.4 km/h 82% 0 mm
18:04 19.1 °C 15.9 °C 1013.8 hPa NNE 1.6 km/h 6.4 km/h 82% 0 mm
18:09 19 °C 15.8 °C 1013.8 hPa NNW 1.6 km/h 9.7 km/h 82% 0 mm
18:14 18.9 °C 15.7 °C 1013.8 hPa North 1.6 km/h 9.7 km/h 82% 0 mm
18:19 18.9 °C 15.7 °C 1013.4 hPa NNE 3.2 km/h 11.3 km/h 82% 0 mm
18:29 18.9 °C 16 °C 1013.4 hPa ENE 4.8 km/h 12.9 km/h 83% 0 mm
18:34 18.8 °C 15.9 °C 1013.4 hPa NE 3.2 km/h 12.9 km/h 83% 0 mm
18:39 18.9 °C 16 °C 1013.4 hPa NE 4.8 km/h 11.3 km/h 83% 0 mm
18:44 18.9 °C 16 °C 1013.8 hPa ENE 6.4 km/h 11.3 km/h 83% 0 mm
18:49 19.2 °C 16.2 °C 1013.8 hPa Calm   8 km/h 83% 0 mm
18:54 19.2 °C 16 °C 1013.8 hPa Calm     82% 0 mm
18:59 19.2 °C 16 °C 1013.8 hPa ENE 4.8 km/h 6.4 km/h 82% 0 mm
19:04 19.1 °C 15.9 °C 1013.8 hPa ENE 8 km/h 12.9 km/h 82% 0 mm
19:09 19.1 °C 15.9 °C 1013.4 hPa NE 3.2 km/h 8 km/h 82% 0 mm
19:14 19 °C 15.8 °C 1013.4 hPa ENE 3.2 km/h 8 km/h 82% 0 mm
19:19 18.9 °C 15.7 °C 1013.8 hPa ENE 1.6 km/h 8 km/h 82% 0 mm
19:24 18.8 °C 15.9 °C 1013.8 hPa ENE 1.6 km/h 8 km/h 83% 0 mm
19:29 18.8 °C 15.8 °C 1013.8 hPa Calm     83% 0 mm
19:34 18.8 °C 15.8 °C 1013.8 hPa Calm     83% 0 mm
19:39 18.8 °C 15.7 °C 1013.8 hPa Calm   6.4 km/h 82% 0 mm
19:44 18.7 °C 15.6 °C 1013.8 hPa Calm   4.8 km/h 82% 0 mm
19:49 18.8 °C 15.7 °C 1013.8 hPa ENE 1.6 km/h 4.8 km/h 82% 0 mm
19:54 18.8 °C 15.4 °C 1013.8 hPa Calm   4.8 km/h 81% 0 mm
19:59 18.8 °C 15.4 °C 1014.1 hPa Calm     81% 0 mm
20:04 18.7 °C 15.4 °C 1014.1 hPa Calm     81% 0 mm
20:09 18.7 °C 15.6 °C 1014.1 hPa Calm     82% 0 mm
20:14 18.7 °C 15.6 °C 1014.1 hPa Calm     82% 0 mm
20:19 18.6 °C 15.5 °C 1014.1 hPa Calm     82% 0 mm
20:24 18.6 °C 15.5 °C 1014.1 hPa Calm     82% 0 mm
20:29 18.6 °C 15.4 °C 1014.1 hPa Calm   4.8 km/h 82% 0 mm
20:34 18.5 °C 15.6 °C 1014.1 hPa NE 1.6 km/h 6.4 km/h 83% 0 mm
20:39 18.4 °C 15.5 °C 1014.4 hPa NE 1.6 km/h 6.4 km/h 83% 0 mm
20:44 18.4 °C 15.4 °C 1014.4 hPa Calm   1.6 km/h 83% 0 mm
20:49 18.4 °C 15.4 °C 1014.4 hPa Calm     83% 0 mm
20:54 18.4 °C 15.6 °C 1014.4 hPa Calm   4.8 km/h 84% 0 mm
20:59 18.3 °C 15.6 °C 1014.4 hPa Calm   6.4 km/h 84% 0 mm
21:04 18.3 °C 15.5 °C 1014.8 hPa Calm     84% 0 mm
21:09 18.2 °C 15.5 °C 1014.8 hPa Calm     84% 0 mm
21:14 18.2 °C 15.4 °C 1014.8 hPa Calm     84% 0 mm
21:19 18.1 °C 15.5 °C 1014.8 hPa Calm     85% 0 mm
21:24 18.1 °C 15.5 °C 1014.8 hPa Calm     85% 0 mm
21:29 18 °C 15.4 °C 1014.8 hPa Calm     85% 0 mm
21:34 17.9 °C 15.3 °C 1014.8 hPa Calm     85% 0 mm
21:39 17.8 °C 15.3 °C 1014.4 hPa Calm     85% 0 mm
21:44 17.7 °C 15.2 °C 1014.4 hPa Calm     85% 0 mm
21:49 17.6 °C 15.2 °C 1014.8 hPa Calm     86% 0 mm
21:54 17.6 °C 15.2 °C 1014.8 hPa Calm     86% 0 mm
21:59 17.4 °C 15.1 °C 1014.8 hPa Calm     86% 0 mm
22:04 17.4 °C 15.3 °C 1014.8 hPa Calm     87% 0 mm
22:09 17.4 °C 15.2 °C 1014.8 hPa Calm     87% 0 mm
22:14 17.4 °C 15.3 °C 1014.8 hPa Calm     87% 0 mm
22:19 17.4 °C 15.3 °C 1014.8 hPa Calm     87% 0 mm
22:24 17.4 °C 15.2 °C 1014.8 hPa Calm     87% 0 mm
22:29 17.4 °C 15.3 °C 1014.8 hPa Calm     87% 0 mm
22:34 17.5 °C 15.3 °C 1014.8 hPa Calm     87% 0 mm
22:39 17.6 °C 15.4 °C 1014.8 hPa Calm     87% 0 mm
22:44 17.5 °C 15.3 °C 1014.8 hPa Calm     87% 0 mm
22:49 17.4 °C 15.3 °C 1014.8 hPa Calm     87% 0 mm
22:54 17.4 °C 15.2 °C 1014.8 hPa Calm     87% 0 mm
22:59 17.3 °C 15.1 °C 1014.8 hPa Calm     87% 0 mm
23:04 17.2 °C 15 °C 1014.8 hPa Calm     87% 0 mm
23:09 17 °C 15 °C 1014.8 hPa Calm     88% 0 mm
23:24 16.8 °C 14.9 °C 1014.8 hPa Calm     89% 0 mm
23:29 16.7 °C 14.9 °C 1014.8 hPa Calm     89% 0 mm
23:34 16.7 °C 14.8 °C 1014.8 hPa Calm     89% 0 mm
23:39 16.6 °C 14.8 °C 1014.8 hPa Calm     89% 0 mm
23:44 16.6 °C 14.8 °C 1014.8 hPa Calm     89% 0 mm
23:49 16.4 °C 14.6 °C 1014.8 hPa Calm     89% 0 mm
23:54 16.4 °C 14.6 °C 1014.8 hPa Calm     89% 0 mm
23:59 16.3 °C 14.5 °C 1014.8 hPa Calm     89% 0 mm
Buffalo, New York, USA
Compliments of Weather Underground - 2.5 mb